Date String (YYYY-MM-DD hh:mm:ss) UTC,Instrument flags,Ambient pressure (hPa),Sample flow (lpm),Bypass flow (lpm),Sample temperature (°C),Ambient temperature (°C),ASC tube jacket temperature (°C),LED temperature (°C),Box temperature (°C),Sample RH (%),Span deviation,Mass concentration (μg/m³),Mass concentration (μg/m³),Mass concentration (μg/m³)
DateTimeUTC,F1_M11,P_M11,Q1_M11,Q2_M11,T1_M11,T2_M11,T3_M11,T4_M11,T5_M11,U1_M11,ZSPAN_M11,X0_M11,X2_M11,X1_M11
2022-06-18 18:00:00,,0825.2,5.00,0.00,29.0,27.6,00.0,37.8,30.9,26.2,0001.1,0017.45,0009.59,0007.97
2022-06-18 18:01:00,,0825.2,4.99,0.00,29.0,27.8,00.0,37.8,31.0,25.0,0001.4,0017.12,0009.21,0007.70
2022-06-18 18:02:00,,0825.1,5.01,0.00,29.0,28.0,00.0,37.8,31.1,24.7,0001.4,0017.14,0008.81,0007.37
2022-06-18 18:03:00,,0825.1,5.00,0.00,29.1,28.1,00.0,37.8,31.1,24.0,0000.0,0016.84,0008.41,0007.04
2022-06-18 18:04:00,,0825.1,5.01,0.00,29.1,28.2,00.0,37.8,31.2,23.8,0000.0,0016.52,0008.03,0006.71
2022-06-18 18:05:00,,0825.1,5.00,0.00,29.1,27.9,00.0,37.8,31.1,24.5,0000.0,0015.64,0007.71,0006.42
2022-06-18 18:06:00,,0825.0,4.99,0.00,29.1,27.2,00.0,37.8,30.9,24.6,0000.0,0015.38,0007.40,0006.18
2022-06-18 18:07:00,,0825.0,5.01,0.00,29.0,27.0,00.0,37.7,30.9,24.0,0000.0,0014.83,0007.12,0005.92
2022-06-18 18:08:00,,0824.9,4.98,0.00,29.0,27.0,00.0,37.7,30.9,23.6,0000.0,0014.79,0006.85,0005.64
2022-06-18 18:09:00,,0824.9,5.00,0.00,29.0,27.2,00.0,37.7,30.9,23.6,0000.0,0014.65,0006.58,0005.38
2022-06-18 18:10:00,,0824.9,5.00,0.00,29.0,27.3,00.0,37.8,30.9,24.3,0000.0,0014.64,0006.35,0005.17
2022-06-18 18:11:00,,0825.0,5.01,0.00,29.0,27.5,00.0,37.8,31.0,24.8,0000.0,0013.98,0006.30,0005.09
2022-06-18 18:12:00,,0824.9,4.99,0.00,29.0,27.7,00.0,37.8,31.0,24.8,0000.0,0013.74,0006.44,0005.17
2022-06-18 18:13:00,,0824.9,4.99,0.00,29.1,27.9,00.0,37.8,31.1,24.1,0000.0,0013.12,0006.46,0005.24
2022-06-18 18:14:00,,0824.8,5.00,0.00,29.1,28.1,00.0,37.8,31.1,23.4,0000.0,0012.84,0006.45,0005.26
2022-06-18 18:15:00,,0824.9,5.01,0.00,29.1,28.2,00.0,37.9,31.2,23.2,0000.0,0012.86,0006.44,0005.25
2022-06-18 18:16:00,,0824.8,5.00,0.00,29.2,28.3,00.0,37.9,31.2,23.2,0000.0,0012.82,0006.44,0005.25
2022-06-18 18:17:00,,0824.8,5.00,0.00,29.2,27.8,00.0,37.8,31.1,24.0,0000.0,0012.76,0006.49,0005.24
2022-06-18 18:18:00,,0824.8,5.00,0.00,29.1,27.2,00.0,37.8,30.9,24.5,0000.0,0013.16,0006.55,0005.27
2022-06-18 18:19:00,,0824.7,4.99,0.00,29.1,27.0,00.0,37.8,30.9,25.2,0000.0,0013.06,0006.62,0005.33
2022-06-18 18:20:00,,0824.7,5.01,0.00,29.0,27.1,00.0,37.8,30.9,25.4,0000.0,0013.28,0006.69,0005.38
2022-06-18 18:21:00,,0824.6,5.00,0.00,29.0,27.3,00.0,37.8,30.9,25.6,0000.0,0012.94,0006.74,0005.41
2022-06-18 18:22:00,,0824.7,5.00,0.00,29.0,27.4,00.0,37.8,31.0,25.6,0000.0,0013.09,0006.74,0005.41
2022-06-18 18:23:00,,0824.6,4.99,0.00,29.0,27.6,00.0,37.8,31.0,25.3,0000.0,0012.86,0006.69,0005.39
2022-06-18 18:24:00,,0824.6,5.00,0.00,29.1,27.8,00.0,37.8,31.1,25.2,0000.0,0013.13,0006.71,0005.38
2022-06-18 18:25:00,,0824.6,5.01,0.00,29.1,28.0,00.0,37.9,31.1,25.3,0000.0,0013.26,0006.77,0005.41
2022-06-18 18:26:00,,0824.8,4.99,0.00,29.1,28.1,00.0,37.9,31.2,25.1,0000.0,0013.25,0006.82,0005.44
2022-06-18 18:27:00,,0824.7,5.00,0.00,29.2,28.1,00.0,37.9,31.2,25.0,0000.0,0013.05,0006.79,0005.45
2022-06-18 18:28:00,,0824.7,5.00,0.00,29.2,27.5,00.0,37.8,31.0,24.7,0000.0,0012.97,0006.77,0005.42
2022-06-18 18:29:00,,0824.6,5.00,0.00,29.1,27.1,00.0,37.8,30.9,24.7,0000.0,0012.61,0006.69,0005.36
2022-06-18 18:30:00,,0824.7,5.00,0.00,29.1,27.1,00.0,37.8,30.9,24.9,0000.0,0012.76,0006.66,0005.31
2022-06-18 18:31:00,,0824.7,4.99,0.00,29.0,27.2,00.0,37.8,30.9,25.0,0000.0,0012.65,0006.64,0005.25
2022-06-18 18:32:00,,0824.7,5.01,0.00,29.0,27.3,00.0,37.8,30.9,25.2,0000.0,0012.51,0006.56,0005.21
2022-06-18 18:33:00,,0824.6,5.00,0.00,29.0,27.5,00.0,37.8,31.0,25.4,0000.0,0012.20,0006.47,0005.17
2022-06-18 18:34:00,,0824.6,4.99,0.00,29.0,27.7,00.0,37.8,31.0,25.5,0000.0,0012.27,0006.47,0005.14
2022-06-18 18:35:00,,0824.6,5.01,0.00,29.1,27.9,00.0,37.8,31.1,25.4,0000.0,0012.39,0006.52,0005.13
2022-06-18 18:36:00,,0824.6,5.00,0.00,29.1,28.0,00.0,37.8,31.1,25.4,0000.0,0012.61,0006.58,0005.14
2022-06-18 18:37:00,,0824.6,4.99,0.00,29.1,28.2,00.0,37.9,31.2,25.1,0000.0,0012.53,0006.60,0005.17
2022-06-18 18:38:00,,0824.7,5.00,0.00,29.2,27.9,00.0,37.9,31.2,25.0,0000.0,0012.88,0006.71,0005.21
2022-06-18 18:39:00,,0824.7,4.99,0.00,29.1,27.2,00.0,37.8,30.9,25.0,0000.0,0013.10,0006.73,0005.24
2022-06-18 18:40:00,,0824.6,5.00,0.00,29.1,27.0,00.0,37.8,30.8,25.1,0000.0,0013.25,0006.77,0005.27
2022-06-18 18:41:00,,0824.7,5.01,0.00,29.0,27.0,00.0,37.8,30.9,25.2,0000.0,0013.11,0006.80,0005.31
2022-06-18 18:42:00,,0824.5,5.00,0.00,29.0,27.2,00.0,37.8,30.9,25.2,0000.0,0012.81,0006.85,0005.34
2022-06-18 18:43:00,,0824.5,5.00,0.00,29.0,27.3,00.0,37.8,30.9,25.1,0000.7,0013.47,0006.92,0005.34
2022-06-18 18:44:00,,0824.5,5.00,0.00,29.0,27.5,00.0,37.8,31.0,24.8,0001.4,0013.93,0007.02,0005.34
2022-06-18 18:45:00,,0824.6,4.99,0.00,29.0,27.7,00.0,37.8,31.0,24.7,0000.2,0014.02,0007.04,0005.32
2022-06-18 18:46:00,,0824.4,5.01,0.00,29.1,27.9,00.0,37.8,31.1,24.8,0000.0,0013.88,0007.00,0005.28
2022-06-18 18:47:00,,0824.7,5.00,0.00,29.1,28.1,00.0,37.8,31.2,24.6,0000.0,0013.74,0006.93,0005.22
2022-06-18 18:48:00,,0824.5,5.01,0.00,29.1,28.2,00.0,37.9,31.2,24.5,0000.0,0013.76,0006.92,0005.19
2022-06-18 18:49:00,,0824.4,4.99,0.00,29.1,27.7,00.0,37.8,31.0,24.5,0000.0,0014.52,0006.85,0005.15
2022-06-18 18:50:00,,0824.4,4.99,0.00,29.1,27.0,00.0,37.8,30.8,24.4,0000.0,0014.42,0006.84,0005.13
2022-06-18 18:51:00,,0824.4,5.00,0.00,29.0,26.9,00.0,37.8,30.8,24.4,0000.0,0014.58,0006.85,0005.13
2022-06-18 18:52:00,,0824.4,5.01,0.00,29.0,27.0,00.0,37.8,30.8,24.7,0000.0,0014.55,0006.83,0005.12
2022-06-18 18:53:00,,0824.5,5.01,0.00,29.0,27.1,00.0,37.8,30.9,24.9,0000.0,0014.44,0006.81,0005.12
2022-06-18 18:54:00,,0824.5,4.99,0.00,29.0,27.4,00.0,37.8,30.9,24.9,0000.0,0014.13,0006.79,0005.15
2022-06-18 18:55:00,,0824.4,5.00,0.00,29.0,27.6,00.0,37.8,31.0,24.9,0000.0,0013.93,0006.83,0005.18
2022-06-18 18:56:00,,0824.4,5.00,0.00,29.0,27.8,00.0,37.8,31.0,25.0,0000.0,0014.33,0006.83,0005.21
2022-06-18 18:57:00,,0824.6,5.00,0.00,29.1,27.9,00.0,37.8,31.1,25.0,0000.0,0014.38,0006.83,0005.24
2022-06-18 18:58:00,,0824.6,4.99,0.00,29.1,28.1,00.0,37.8,31.2,24.9,0000.0,0014.35,0006.85,0005.29
2022-06-18 18:59:00,,0824.4,4.99,0.00,29.1,28.1,00.0,37.8,31.2,25.0,0000.0,0014.73,0006.90,0005.33
